Location: Newark
(43.0492°N, 2.7892°E)
Time: 17:07:33
(UTC+00:00)

N. Korean satellite - Visible Passes

Search period start: 29 January 2020 00:00
Search period end: 08 February 2020 00:00
Orbit: 454 x 507 km, 97.2° (Epoch: 28 January)

Date Brightness Start Highest point End Pass type
(mag) Time Alt. Az. Time Alt. Az. Time Alt. Az.
29 Jan 6.7 05:36:31 10° NNE 05:40:08 78° E 05:43:47 10° S visible
29 Jan 9.8 17:47:35 10° SW 17:49:39 15° W 17:51:44 10° NW visible
30 Jan 8.3 05:11:14 10° NNE 05:14:35 35° E 05:17:58 10° SSE visible
31 Jan 9.5 04:46:25 10° NE 04:48:58 18° E 04:51:31 10° SE visible
31 Jan 7.4 06:19:11 10° N 06:22:23 30° WNW 06:25:36 10° SW visible
01 Feb 6.5 05:53:23 10° N 05:56:59 62° WNW 06:00:36 10° SSW visible
02 Feb 7.2 05:27:52 10° NNE 05:31:29 60° E 05:35:07 10° S visible
02 Feb 9.6 17:38:22 10° SW 17:40:54 19° W 17:43:28 10° NW visible
03 Feb 8.8 05:02:42 10° NE 05:05:55 28° E 05:09:08 10° SSE visible
04 Feb 9.9 04:38:10 10° ENE 04:40:15 14° E 04:42:20 10° SE visible
04 Feb 7.1 06:10:22 10° N 06:13:46 37° WNW 06:17:12 10° SW visible
05 Feb 6.5 05:44:39 10° N 05:48:20 81° WNW 05:52:02 10° SSW visible
05 Feb 10.1 17:56:26 10° WSW 17:57:51 12° W 17:59:18 10° WNW visible
06 Feb 7.7 05:19:15 10° NNE 05:22:49 46° E 05:26:23 10° S visible
07 Feb 9.2 04:54:13 10° NE 04:57:12 23° E 05:00:10 10° SSE visible
